FW0960 Weather Reports


time (UTC)temp
C
wind
direction
speed
KPH
gust
KPH
rain 1hr
cm
rain 24hr
cm
rain mn
cm
humidity
%
barometer
mb
20260901140906 28 167 1.6 8.0 0.00 0.00 0.00 84 1017.2
20260901140409 28 158 1.6 8.0 0.00 0.00 0.00 84 1017.4
20260901135910 28 159 1.6 8.0 0.00 0.00 0.00 84 1017.3
20260901135404 28 159 1.6 8.0 0.00 0.00 0.00 85 1017.4
20260901133901 27 163 1.6 8.0 0.00 0.00 0.00 87 1017.5
20260901133401 27 164 1.6 8.0 0.00 0.00 0.00 87 1017.5
20260901132354 27 165 0.0 8.0 0.00 0.00 0.00 88 1017.4
20260901131854 26 177 1.6 4.8 0.00 0.00 0.00 90 1017.4
20260901131356 26 177 1.6 9.7 0.00 0.00 0.00 90 1017.5
20260901130859 26 177 0.0 9.7 0.00 0.00 0.00 90 1017.3
20260901125857 26 268 0.0 3.2 0.00 0.00 0.00 93 1017.4
20260901124911 25 269 0.0 3.2 0.00 0.00 0.00 94 1017.3
20260901123849 25 269 0.0 4.8 0.00 0.00 0.00 94 1017.5
20260901123348 25 269 0.0 3.2 0.00 0.00 0.00 96 1017.5
20260901122852 25 269 0.0 3.2 0.00 0.00 0.00 96 1017.8
20260901122344 25 269 0.0 4.8 0.00 0.00 0.00 97 1017.9
20260901121343 24 269 0.0 3.2 0.00 0.00 0.00 99 1018.0
20260901120344 24 269 0.0 3.2 0.00 0.00 0.00 100 1017.8
20260901115844 24 269 0.0 3.2 0.00 0.00 0.00 100 1017.8
20260901115340 24 269 0.0 0.0 0.00 0.00 0.00 100 1017.8
20260901114841 23 269 0.0 0.0 0.00 0.00 0.00 100 1017.7
20260901114341 23 269 0.0 0.0 0.00 0.00 0.00 100 1017.8
20260901113843 23 269 0.0 0.0 0.00 0.00 0.00 100 1017.7
20260901113410 23 269 0.0 0.0 0.00 0.00 0.00 100 1017.8
20260901112344 23 269 0.0 0.0 0.00 0.00 0.00 100 1017.6
20260901111336 23 269 0.0 0.0 0.00 0.00 0.00 100 1017.3
20260901105342 23 269 0.0 0.0 0.00 0.00 0.00 99 1017.3
20260901104837 23 269 0.0 0.0 0.00 0.00 0.00 99 1017.2
20260901104341 23 269 0.0 0.0 0.00 0.00 0.00 99 1017.1
20260901103843 23 269 0.0 0.0 0.00 0.00 0.00 99 1017.2
20260901103334 23 269 0.0 0.0 0.00 0.00 0.00 99 1017.1
20260901102836 23 269 0.0 0.0 0.00 0.00 0.00 99 1017.2
20260901102331 23 269 0.0 0.0 0.00 0.00 0.00 99 1017.1
20260901101331 23 269 0.0 0.0 0.00 0.00 0.00 99 1017.2
20260901100339 23 269 0.0 0.0 0.00 0.00 0.00 99 1017.2
20260901095334 23 269 0.0 0.0 0.00 0.00 0.00 99 1017.1
20260901094838 23 269 0.0 0.0 0.00 0.00 0.00 99 1017.1
20260901094330 23 269 0.0 0.0 0.00 0.00 0.00 99 1017.1
20260901093834 23 269 0.0 0.0 0.00 0.00 0.00 99 1017.0
20260901092836 23 269 0.0 0.0 0.00 0.00 0.00 99 1017.1
20260901092330 23 269 0.0 0.0 0.00 0.00 0.00 99 1017.1
20260901091337 23 269 0.0 0.0 0.00 0.00 0.00 99 1017.0
20260901090833 23 269 0.0 0.0 0.00 0.00 0.00 99 1017.0
20260901090335 23 269 0.0 0.0 0.00 0.00 0.00 99 1017.2
20260901085833 23 269 0.0 0.0 0.00 0.00 0.00 99 1017.2
20260901085328 23 269 0.0 0.0 0.00 0.00 0.00 99 1017.2
20260901084838 23 269 0.0 0.0 0.00 0.00 0.00 99 1017.3
20260901084335 23 269 0.0 0.0 0.00 0.00 0.00 99 1017.4
20260901083828 23 269 0.0 0.0 0.00 0.00 0.00 99 1017.3
20260901082820 23 269 0.0 0.0 0.00 0.00 0.00 99 1017.3
20260901082322 23 269 0.0 0.0 0.00 0.00 0.00 99 1017.2
20260901081822 23 269 0.0 0.0 0.00 0.00 0.00 99 1017.2
20260901081320 23 269 0.0 0.0 0.00 0.00 0.00 99 1017.3
20260901080822 23 269 0.0 0.0 0.00 0.00 0.00 99 1017.4
20260901075815 23 269 0.0 0.0 0.00 0.00 0.00 99 1017.4
20260901075314 23 269 0.0 0.0 0.00 0.00 0.00 99 1017.4
20260901074813 23 269 0.0 0.0 0.00 0.00 0.00 99 1017.4
20260901074314 23 269 0.0 0.0 0.00 0.00 0.00 99 1017.4
20260901073311 23 269 0.0 0.0 0.00 0.00 0.00 99 1017.5
20260901072812 23 269 0.0 0.0 0.00 0.00 0.00 99 1017.5
20260901072311 23 269 0.0 0.0 0.00 0.00 0.00 98 1017.6
20260901071804 23 269 0.0 0.0 0.00 0.00 0.00 98 1017.6
20260901070802 23 269 0.0 0.0 0.00 0.00 0.00 98 1017.4
20260901070303 23 269 0.0 0.0 0.00 0.00 0.00 98 1017.4
20260901065805 23 269 0.0 0.0 0.00 0.00 0.00 98 1017.3
20260901064303 23 269 0.0 0.0 0.00 0.00 0.00 98 1017.5
20260901063304 23 269 0.0 0.0 0.00 0.00 0.00 97 1017.5
20260901062805 23 269 0.0 0.0 0.00 0.00 0.00 97 1017.7
20260901061808 23 269 0.0 0.0 0.00 0.00 0.00 97 1017.7
20260901061307 23 269 0.0 0.0 0.00 0.00 0.00 97 1017.7
20260901060803 23 269 0.0 0.0 0.00 0.00 0.00 97 1017.8
20260901060304 23 269 0.0 0.0 0.00 0.00 0.00 97 1018.0
20260901055804 23 269 0.0 0.0 0.00 0.00 0.00 97 1017.9
20260901055310 23 269 0.0 0.0 0.00 0.00 0.00 97 1018.1
20260901054803 23 269 0.0 0.0 0.00 0.00 0.00 97 1018.2
20260901053803 23 269 0.0 0.0 0.00 0.00 0.00 97 1018.3
20260901053304 23 269 0.0 0.0 0.00 0.00 0.00 97 1018.5
20260901052803 23 269 0.0 0.0 0.00 0.00 0.00 97 1018.6
20260901051255 24 269 0.0 0.0 0.00 0.00 0.00 96 1018.6
20260901050756 24 269 0.0 0.0 0.00 0.00 0.00 96 1018.7
20260901050253 24 269 0.0 0.0 0.00 0.00 0.00 97 1018.6
20260901045801 24 269 0.0 0.0 0.00 0.00 0.00 96 1018.7
20260901045252 24 269 0.0 0.0 0.00 0.00 0.00 96 1018.8
20260901044757 24 269 0.0 0.0 0.00 0.00 0.00 96 1018.7
20260901043748 24 269 0.0 0.0 0.00 0.00 0.00 96 1018.5
20260901043246 24 269 0.0 0.0 0.00 0.00 0.00 96 1018.6
20260901042747 24 269 0.0 0.0 0.00 0.00 0.00 96 1018.5
20260901042246 24 269 0.0 0.0 0.00 0.00 0.00 96 1018.5
20260901041746 24 269 0.0 0.0 0.00 0.00 0.00 96 1018.5
20260901041246 24 269 0.0 0.0 0.00 0.00 0.00 96 1018.3
20260901040244 24 269 0.0 0.0 0.00 0.00 0.00 96 1018.3
20260901035744 24 269 0.0 0.0 0.00 0.00 0.00 95 1018.4
20260901034738 24 269 0.0 0.0 0.00 0.00 0.00 95 1018.3
20260901034242 24 269 0.0 0.0 0.00 0.00 0.00 95 1018.3
20260901032235 24 269 0.0 0.0 0.00 0.00 0.00 95 1018.4
20260901031738 24 269 0.0 0.0 0.00 0.00 0.00 95 1018.2
20260901031237 24 269 0.0 0.0 0.00 0.00 0.00 95 1018.2
20260901030739 24 269 0.0 0.0 0.00 0.00 0.00 95 1018.3
20260901030236 24 269 0.0 0.0 0.00 0.00 0.00 95 1018.3
20260901025230 24 269 0.0 0.0 0.00 0.00 0.00 95 1018.4
20260901024732 24 269 0.0 0.0 0.00 0.00 0.00 94 1018.3
20260901024233 24 269 0.0 0.0 0.00 0.00 0.00 94 1018.4
20260901023733 24 269 0.0 0.0 0.00 0.00 0.00 94 1018.4
20260901022733 24 269 0.0 0.0 0.00 0.00 0.00 94 1018.6
20260901022236 24 269 0.0 0.0 0.00 0.00 0.00 94 1018.7
20260901021233 24 269 0.0 0.0 0.00 0.00 0.00 94 1018.7
20260901020733 24 269 0.0 0.0 0.00 0.00 0.00 94 1018.9
20260901020232 24 269 0.0 0.0 0.00 0.00 0.00 94 1018.9
20260901015731 24 269 0.0 0.0 0.00 0.00 0.00 94 1018.9
20260901014732 24 269 0.0 0.0 0.00 0.00 0.00 94 1019.0
20260901014231 24 269 0.0 0.0 0.00 0.00 0.00 94 1018.9
20260901013729 24 269 0.0 0.0 0.00 0.00 0.00 94 1019.0
20260901013230 24 269 0.0 0.0 0.00 0.00 0.00 94 1019.0
20260901012729 24 269 0.0 0.0 0.00 0.00 0.00 95 1019.0
20260901012228 24 269 0.0 0.0 0.00 0.00 0.00 95 1018.9
20260901011220 24 269 0.0 0.0 0.00 0.00 0.00 95 1018.9
20260901010724 24 269 0.0 0.0 0.00 0.00 0.00 95 1018.9
20260901010218 24 269 0.0 0.0 0.00 0.00 0.00 95 1018.8
20260901005216 24 269 0.0 0.0 0.00 0.00 0.00 94 1018.8
20260901004710 24 269 0.0 1.6 0.00 0.00 0.00 94 1018.8
20260901004209 24 269 0.0 1.6 0.00 0.00 0.00 94 1018.8
20260901003709 24 269 0.0 1.6 0.00 0.00 0.00 94 1018.7
20260901003208 24 269 0.0 1.6 0.00 0.00 0.00 94 1018.6
20260901002706 24 269 0.0 0.0 0.00 0.00 0.00 94 1018.5
20260901002204 24 269 0.0 0.0 0.00 0.00 0.00 94 1018.4
20260901001707 24 269 0.0 0.0 0.00 0.00 0.00 94 1018.5
20260901001221 24 269 0.0 0.0 0.00 0.00 0.00 93 1018.6
20260901000205 24 269 0.0 0.0 0.00 0.00 0.00 93 1018.6
20260831235701 24 269 0.0 0.0 0.00 0.00 0.00 93 1018.6
20260831235203 24 269 0.0 1.6 0.00 0.00 0.00 93 1018.6
20260831234708 24 269 0.0 1.6 0.00 0.00 0.00 93 1018.7
20260831234158 24 269 0.0 0.0 0.00 0.00 0.00 93 1018.7
20260831233654 24 269 0.0 0.0 0.00 0.00 0.00 93 1018.7
20260831233152 24 269 0.0 0.0 0.00 0.00 0.00 92 1018.8
20260831232654 24 269 0.0 0.0 0.00 0.00 0.00 92 1018.7
20260831232154 24 269 0.0 0.0 0.00 0.00 0.00 92 1018.9
20260831231646 24 269 0.0 0.0 0.00 0.00 0.00 92 1018.9
20260831231148 25 269 0.0 0.0 0.00 0.00 0.00 92 1019.0
20260831230147 25 269 0.0 0.0 0.00 0.00 0.00 92 1019.0
20260831225146 25 269 0.0 0.0 0.00 0.00 0.00 91 1019.1
20260831224639 25 269 0.0 0.0 0.00 0.00 0.00 91 1019.0
20260831223636 25 269 0.0 0.0 0.00 0.00 0.00 91 1019.0
20260831223133 25 269 0.0 0.0 0.00 0.00 0.00 91 1019.3
20260831222635 25 269 0.0 0.0 0.00 0.00 0.00 91 1019.4
20260831222134 25 269 0.0 0.0 0.00 0.00 0.00 91 1019.2
20260831221632 25 269 0.0 0.0 0.00 0.00 0.00 91 1019.4
20260831220640 25 269 0.0 1.6 0.00 0.00 0.00 90 1019.5
20260831220132 25 269 0.0 1.6 0.00 0.00 0.00 90 1019.5
20260831215126 25 269 0.0 1.6 0.00 0.00 0.00 90 1019.8
20260831214633 25 269 0.0 1.6 0.00 0.00 0.00 90 1019.8
20260831214123 25 269 0.0 1.6 0.00 0.00 0.00 89 1019.9
20260831213623 25 269 0.0 1.6 0.00 0.00 0.00 90 1019.9
20260831213119 25 269 0.0 1.6 0.00 0.00 0.00 90 1019.8
20260831212620 25 269 0.0 1.6 0.00 0.00 0.00 90 1019.6
20260831212121 25 269 0.0 3.2 0.00 0.00 0.00 90 1019.5
20260831211619 25 269 0.0 3.2 0.00 0.00 0.00 90 1019.5
20260831211120 25 271 0.0 1.6 0.00 0.00 0.00 91 1019.4
20260831205108 25 271 0.0 1.6 0.00 0.00 0.00 91 1019.6
20260831204605 25 271 0.0 1.6 0.00 0.00 0.00 90 1019.5
20260831204141 25 271 0.0 1.6 0.00 0.00 0.00 91 1019.2
20260831203606 25 271 0.0 1.6 0.00 0.00 0.00 90 1019.1
20260831203108 25 271 0.0 1.6 0.00 0.00 0.00 90 1019.0
20260831202650 25 271 0.0 1.6 0.00 0.00 0.00 90 1019.0
20260831202105 25 271 0.0 1.6 0.00 0.00 0.00 90 1019.1
20260831201110 25 269 1.6 1.6 0.00 0.00 0.00 90 1019.0
20260831195604 26 256 0.0 3.2 0.00 0.00 0.00 89 1019.2
20260831195113 26 250 0.0 1.6 0.00 0.00 0.00 90 1019.3
20260831194559 26 250 0.0 1.6 0.00 0.00 0.00 90 1019.2
20260831194100 26 250 1.6 3.2 0.00 0.00 0.00 89 1019.2
20260831193558 26 250 0.0 3.2 0.00 0.00 0.00 88 1019.2
20260831193055 26 250 0.0 3.2 0.00 0.00 0.00 90 1019.1
20260831192555 26 250 0.0 3.2 0.00 0.00 0.00 88 1019.1
20260831192056 26 250 1.6 3.2 0.00 0.00 0.00 89 1019.2
20260831191050 26 248 0.0 3.2 0.00 0.00 0.00 90 1019.2
20260831190549 26 248 1.6 3.2 0.00 0.00 0.00 89 1019.3
20260831190050 26 245 0.0 3.2 0.00 0.00 0.00 89 1019.3
20260831185544 26 240 1.6 3.2 0.00 0.00 0.00 89 1019.5
20260831185041 26 243 0.0 3.2 0.00 0.00 0.00 90 1019.4
20260831184539 26 234 0.0 3.2 0.00 0.00 0.00 89 1019.3
20260831184208 26 234 0.0 3.2 0.00 0.00 0.00 89 1019.6
20260831183036 26 229 0.0 3.2 0.00 0.00 0.00 89 1019.4
20260831182538 26 229 0.0 3.2 0.00 0.00 0.00 89 1019.4
20260831182034 26 229 1.6 3.2 0.00 0.00 0.00 89 1019.2
20260831181538 26 230 0.0 3.2 0.00 0.00 0.00 90 1019.3
20260831180538 26 230 0.0 3.2 0.00 0.00 0.00 90 1019.4
20260831175034 26 230 0.0 3.2 0.00 0.00 0.00 90 1019.6
20260831174534 26 229 0.0 1.6 0.00 0.00 0.00 89 1019.6
20260831174033 26 230 0.0 3.2 0.00 0.00 0.00 89 1019.6
20260831173535 26 230 1.6 3.2 0.00 0.00 0.00 89 1019.6
20260831173033 26 229 1.6 3.2 0.00 0.00 0.00 89 1019.6
20260831172531 26 229 0.0 3.2 0.00 0.00 0.00 89 1019.5
20260831172034 27 229 0.0 3.2 0.00 0.00 0.00 90 1019.6
20260831171533 26 229 0.0 0.0 0.00 0.00 0.00 90 1019.6
20260831171032 26 230 0.0 0.0 0.00 0.00 0.00 89 1019.6
20260831170039 26 230 0.0 0.0 0.00 0.00 0.00 90 1019.7
20260831165532 26 229 0.0 1.6 0.00 0.00 0.00 90 1019.7
20260831165033 26 230 0.0 1.6 0.00 0.00 0.00 90 1019.8
20260831164036 26 229 0.0 3.2 0.00 0.00 0.00 90 1019.7
20260831163533 26 175 0.0 0.0 0.00 0.00 0.00 90 1019.8
20260831163036 26 175 0.0 0.0 0.00 0.00 0.00 91 1019.9
20260831162535 26 175 0.0 0.0 0.00 0.00 0.00 90 1020.1
20260831162037 26 175 0.0 0.0 0.00 0.00 0.00 90 1020.1
20260831161038 25 175 0.0 0.0 0.00 0.00 0.00 90 1020.2
20260831160531 25 175 0.0 0.0 0.00 0.00 0.00 91 1020.0
20260831155032 25 175 0.0 0.0 0.00 0.00 0.00 91 1020.1
20260831154034 25 175 0.0 0.0 0.00 0.00 0.00 93 1020.1
20260831153532 25 175 0.0 0.0 0.00 0.00 0.00 94 1020.2
20260831153035 25 175 0.0 0.0 0.00 0.00 0.00 92 1020.3
20260831152532 25 175 0.0 0.0 0.00 0.00 0.00 93 1020.3
20260831152033 25 175 0.0 0.0 0.00 0.00 0.00 94 1020.3
20260831151531 25 175 0.0 0.0 0.00 0.00 0.00 94 1020.2
20260831151032 24 175 0.0 0.0 0.00 0.00 0.00 95 1020.3
20260831150532 24 175 0.0 0.0 0.00 0.00 0.00 94 1020.3
20260831150034 24 175 0.0 0.0 0.00 0.00 0.00 95 1020.2
20260831143033 24 175 0.0 1.6 0.00 0.00 0.00 97 1020.1
20260831142030 23 175 0.0 0.0 0.00 0.00 0.00 98 1020.1